EN

Hourly Weather Gjirokaster

Today, 22 January, Friday

Time Temperature Precipitation Wind Pressure Humidity
00:00 +1°C° 0.3 mm 3 mps 654 mmHg 93%
01:00 +1°C° 0.3 mm 3 mps 654 mmHg 93%
02:00 +1°C° 0.3 mm 3 mps 653 mmHg 93%
03:00 +1°C° 0.3 mm 3 mps 653 mmHg 94%
04:00 +1°C° 0.3 mm 3 mps 653 mmHg 95%
05:00 +1°C° 0.4 mm 3 mps 653 mmHg 95%
06:00 +1°C° 0.4 mm 3 mps 653 mmHg 95%
07:00 +1°C° 0.4 mm 3 mps 653 mmHg 95%
08:00 +2°C° 0.5 mm 3 mps 653 mmHg 94%
09:00 +1°C° 0.5 mm 4 mps 653 mmHg 93%
10:00 +1°C° 0.5 mm 4 mps 653 mmHg 92%
11:00 +3°C° 0.6 mm 4 mps 653 mmHg 91%
12:00 +3°C° 0.6 mm 4 mps 652 mmHg 91%
13:00 +3°C° 0.6 mm 4 mps 652 mmHg 91%
14:00 +3°C° 0.7 mm 4 mps 652 mmHg 91%
15:00 +3°C° 0.7 mm 4 mps 651 mmHg 91%
16:00 +3°C° 0.7 mm 4 mps 651 mmHg 91%
17:00 +1°C° 0.6 mm 4 mps 651 mmHg 92%
18:00 +1°C° 0.6 mm 4 mps 651 mmHg 92%
19:00 +1°C° 0.6 mm 4 mps 650 mmHg 92%
20:00 +1°C° 0.5 mm 4 mps 650 mmHg 92%
21:00 +1°C° 0.5 mm 4 mps 650 mmHg 92%
22:00 +1°C° 0.5 mm 5 mps 650 mmHg 92%
23:00 +1°C° 0.4 mm 5 mps 650 mmHg 92%

Tomorrow, 23 January, Saturday

Time Temperature Precipitation Wind Pressure Humidity
00:00 +1°C° 0.4 mm 5 mps 649 mmHg 93%
01:00 +1°C° 0.4 mm 5 mps 649 mmHg 93%
02:00 +1°C° 0.6 mm 5 mps 649 mmHg 93%
03:00 +1°C° 0.6 mm 5 mps 648 mmHg 93%
04:00 +1°C° 0.6 mm 5 mps 648 mmHg 93%
05:00 +1°C° 0.9 mm 5 mps 647 mmHg 93%
06:00 +1°C° 0.9 mm 6 mps 647 mmHg 94%
07:00 +1°C° 0.9 mm 6 mps 647 mmHg 94%
08:00 +1°C° 2.5 mm 6 mps 646 mmHg 94%
09:00 +1°C° 2.5 mm 6 mps 646 mmHg 94%
10:00 +1°C° 2.5 mm 6 mps 645 mmHg 94%
11:00 +1°C° 5.9 mm 6 mps 645 mmHg 95%
12:00 0°C° 5.9 mm 7 mps 644 mmHg 96%
13:00 0°C° 5.9 mm 7 mps 643 mmHg 96%
14:00 +1°C° 7 mm 6 mps 643 mmHg 96%
15:00 +1°C° 7 mm 5 mps 643 mmHg 95%
16:00 +1°C° 7 mm 4 mps 642 mmHg 94%
17:00 +1°C° 1.5 mm 4 mps 643 mmHg 93%
18:00 +2°C° 1.5 mm 3 mps 643 mmHg 92%
19:00 +1°C° 1.5 mm 3 mps 643 mmHg 91%
20:00 +2°C° 0.6 mm 2 mps 644 mmHg 90%
21:00 +1°C° 0.6 mm 2 mps 644 mmHg 89%
22:00 +1°C° 0.6 mm 2 mps 644 mmHg 88%
23:00 -1°C° 0.2 mm 2 mps 644 mmHg 88%

Day after tomorrow, 24 January, Sunday

Time Temperature Precipitation Wind Pressure Humidity
00:00 -1°C° 0.2 mm 2 mps 644 mmHg 88%
01:00 -1°C° 0.2 mm 2 mps 644 mmHg 88%
02:00 -1°C° 0.6 mm 3 mps 643 mmHg 89%
03:00 -1°C° 0.6 mm 3 mps 643 mmHg 91%
04:00 -1°C° 0.6 mm 4 mps 643 mmHg 92%
05:00 -1°C° 1.2 mm 4 mps 643 mmHg 92%
06:00 -1°C° 1.2 mm 4 mps 644 mmHg 92%
07:00 0°C° 1.2 mm 4 mps 644 mmHg 92%
08:00 0°C° 1 mm 4 mps 644 mmHg 91%
09:00 0°C° 1 mm 4 mps 644 mmHg 91%
10:00 +1°C° 1 mm 4 mps 644 mmHg 90%
11:00 +1°C° 1.5 mm 4 mps 644 mmHg 90%
12:00 +1°C° 1.5 mm 4 mps 644 mmHg 91%
13:00 +2°C° 1.5 mm 3 mps 643 mmHg 91%
14:00 0°C° 1.9 mm 4 mps 643 mmHg 92%
15:00 0°C° 1.9 mm 5 mps 643 mmHg 94%
16:00 0°C° 1.9 mm 5 mps 642 mmHg 95%
17:00 -1°C° 4.7 mm 6 mps 642 mmHg 95%
18:00 -1°C° 4.7 mm 6 mps 641 mmHg 96%
19:00 -1°C° 4.7 mm 6 mps 641 mmHg 96%
20:00 -1°C° 6.7 mm 7 mps 640 mmHg 96%
21:00 -1°C° 6.7 mm 7 mps 639 mmHg 97%
22:00 -1°C° 6.7 mm 7 mps 638 mmHg 97%
23:00 -1°C° 4 mm 7 mps 638 mmHg 94%

25 January, Monday

Time Temperature Precipitation Wind Pressure Humidity
00:00 0°C° 4 mm 7 mps 639 mmHg 92%
01:00 0°C° 4 mm 8 mps 639 mmHg 89%
02:00 0°C° 0.7 mm 7 mps 639 mmHg 88%
03:00 -1°C° 0.7 mm 7 mps 639 mmHg 86%
04:00 -1°C° 0.7 mm 6 mps 640 mmHg 85%
05:00 -2°C° 0.5 mm 6 mps 640 mmHg 84%
06:00 -2°C° 0.5 mm 6 mps 640 mmHg 83%
07:00 -2°C° 0.5 mm 6 mps 641 mmHg 81%
08:00 -1°C° 0.1 mm 6 mps 641 mmHg 77%
09:00 0°C° 0.1 mm 5 mps 642 mmHg 73%
10:00 +1°C° 0.1 mm 5 mps 643 mmHg 69%
11:00 +1°C° 0.2 mm 5 mps 643 mmHg 70%
12:00 +1°C° 0.2 mm 5 mps 643 mmHg 71%
13:00 +1°C° 0.2 mm 5 mps 643 mmHg 72%
14:00 0°C° 1.7 mm 5 mps 643 mmHg 79%
15:00 -1°C° 1.7 mm 5 mps 643 mmHg 85%
16:00 -1°C° 1.7 mm 5 mps 642 mmHg 92%
17:00 -1°C° 0.8 mm 5 mps 643 mmHg 89%
18:00 -1°C° 0.8 mm 5 mps 643 mmHg 85%
19:00 -2°C° 0.8 mm 5 mps 643 mmHg 82%
20:00 -2°C° 0.1 mm 5 mps 644 mmHg 80%
21:00 -3°C° 0.1 mm 4 mps 644 mmHg 79%
22:00 -3°C° 0.1 mm 4 mps 644 mmHg 78%
23:00 -4°C° 0.1 mm 3 mps 645 mmHg 81%

26 January, Tuesday

Time Temperature Precipitation Wind Pressure Humidity
00:00 -4°C° 0.1 mm 3 mps 645 mmHg 85%
01:00 -3°C° 0.1 mm 2 mps 645 mmHg 89%
02:00 -3°C° 0.4 mm 2 mps 645 mmHg 90%
03:00 -3°C° 0.4 mm 2 mps 645 mmHg 91%
04:00 -3°C° 0.4 mm 2 mps 645 mmHg 93%
05:00 -1°C° 0.2 mm 1 mps 646 mmHg 92%
06:00 -1°C° 0.2 mm 1 mps 646 mmHg 91%
07:00 -1°C° 0.2 mm 1 mps 646 mmHg 90%
08:00 0°C° 0.3 mm 1 mps 647 mmHg 86%
09:00 0°C° 0.3 mm 1 mps 647 mmHg 82%
10:00 -1°C° 0.3 mm 2 mps 648 mmHg 78%
11:00 -1°C° 0.2 mm 2 mps 648 mmHg 76%
12:00 -1°C° 0.2 mm 2 mps 648 mmHg 74%
13:00 +1°C° 0.2 mm 2 mps 648 mmHg 71%
14:00 -1°C° 0.2 mm 2 mps 648 mmHg 73%
15:00 -1°C° 0.2 mm 2 mps 648 mmHg 75%
16:00 -1°C° 0.2 mm 2 mps 648 mmHg 77%
17:00 -2°C° 0 mm 2 mps 647 mmHg 79%
18:00 -3°C° 0 mm 2 mps 647 mmHg 82%
19:00 -4°C° 0 mm 2 mps 647 mmHg 85%
20:00 -4°C° 0 mm 2 mps 647 mmHg 84%
21:00 -4°C° 0 mm 2 mps 648 mmHg 84%
22:00 -5°C° 0 mm 2 mps 648 mmHg 84%
23:00 -5°C° 0 mm 2 mps 647 mmHg 83%

27 January, Wednesday

Time Temperature Precipitation Wind Pressure Humidity
00:00 -5°C° 0 mm 2 mps 647 mmHg 82%
01:00 -5°C° 0 mm 2 mps 647 mmHg 82%
02:00 -5°C° 0 mm 2 mps 647 mmHg 80%
03:00 -6°C° 0 mm 2 mps 647 mmHg 78%
04:00 -6°C° 0 mm 2 mps 647 mmHg 77%
05:00 -6°C° 0 mm 2 mps 647 mmHg 75%
06:00 -6°C° 0 mm 2 mps 647 mmHg 73%
07:00 -6°C° 0 mm 2 mps 647 mmHg 71%
08:00 -5°C° 0 mm 2 mps 647 mmHg 62%
09:00 -3°C° 0 mm 2 mps 648 mmHg 54%
10:00 -2°C° 0 mm 2 mps 648 mmHg 46%
11:00 -1°C° 0 mm 2 mps 648 mmHg 46%
12:00 -1°C° 0 mm 3 mps 648 mmHg 47%
13:00 0°C° 0 mm 3 mps 648 mmHg 47%
14:00 -1°C° 0 mm 3 mps 648 mmHg 54%
15:00 -1°C° 0 mm 3 mps 648 mmHg 60%
16:00 -1°C° 0 mm 3 mps 647 mmHg 66%
17:00 -2°C° 0 mm 2 mps 647 mmHg 69%
18:00 -3°C° 0 mm 2 mps 647 mmHg 73%
19:00 -4°C° 0 mm 2 mps 647 mmHg 76%
20:00 -5°C° 0 mm 2 mps 647 mmHg 76%
21:00 -5°C° 0 mm 2 mps 648 mmHg 77%
22:00 -5°C° 0 mm 2 mps 648 mmHg 77%
23:00 -5°C° 0 mm 2 mps 648 mmHg 76%
Show more

We Need Your Consent

Meteoprog and our Service Providers may store and access personal data such as cookies, device identifiers or other similar technologies on your device and process such data to personalise content and ads, as well as provide social media features and to analyse the traffic.

  • Store and/or access information on your device

    Cookies, device identifiers or other information can be stored or accessed on your device for the purposes indicated above.

  • Personalised ads and content, ad and content measurement, audience insights, and products development

    Ads and content can be personalised based on a profile. More data can be added to better personalise ads and content. Ad and content performance can be measured. Insights about the audience who saw the ads and content can be derived. Such data can be used to develop or improve user’s experience, systems and software.

By clicking ‘I Agree’ you will allow the use of indicated cookies, device identifiers, web beacons or other similar technologies. Your settings can be changed in the browser on your device.

For certain purposes, legitimate interests may be relied on, rather than consent. You can read more about this in our Privacy and Cookie Policy.